TimeCST,TemperatureF,Dew PointF,Humidity,Sea Level PressureIn,VisibilityMPH,Wind Direction,Wind SpeedMPH,Gust SpeedMPH,PrecipitationIn,Events,Conditions,WindDirDegrees,DateUTC
12:15 AM,22.6,16.7,78,30.19,10.0,NNW,10.4,-,N/A,,Overcast,340,2013-03-02 06:15:00
12:35 AM,22.1,16.5,79,30.19,10.0,NNW,11.5,-,N/A,,Overcast,340,2013-03-02 06:35:00
12:55 AM,22.1,16.5,79,30.20,10.0,North,12.7,-,N/A,,Overcast,350,2013-03-02 06:55:00
1:15 AM,21.7,16.5,80,30.20,10.0,North,10.4,-,N/A,,Overcast,350,2013-03-02 07:15:00
1:35 AM,22.1,16.7,80,30.19,10.0,NNW,11.5,-,N/A,,Overcast,340,2013-03-02 07:35:00
1:55 AM,22.1,16.3,79,30.20,10.0,NNW,12.7,17.3,N/A,,Overcast,340,2013-03-02 07:55:00
2:15 AM,21.2,15.6,79,30.19,10.0,North,12.7,-,N/A,,Overcast,350,2013-03-02 08:15:00
2:35 AM,20.8,15.3,79,30.19,10.0,North,11.5,-,N/A,,Overcast,360,2013-03-02 08:35:00
3:15 AM,19.8,14.4,80,30.18,10.0,North,15.0,-,N/A,,Overcast,360,2013-03-02 09:15:00
3:35 AM,19.2,14.2,81,30.18,10.0,North,13.8,-,N/A,,Overcast,350,2013-03-02 09:35:00
3:55 AM,18.3,13.3,81,30.18,10.0,North,16.1,-,N/A,,Overcast,360,2013-03-02 09:55:00
4:15 AM,17.6,12.7,81,30.18,10.0,North,16.1,-,N/A,,Overcast,360,2013-03-02 10:15:00
4:35 AM,17.2,12.7,83,30.19,10.0,North,15.0,-,N/A,,Overcast,360,2013-03-02 10:35:00
4:55 AM,17.1,12.4,82,30.19,10.0,North,11.5,20.7,N/A,,Overcast,360,2013-03-02 10:55:00
5:15 AM,16.5,12.2,83,30.19,10.0,North,12.7,-,N/A,,Overcast,360,2013-03-02 11:15:00
5:35 AM,16.3,12.2,84,30.20,10.0,North,11.5,-,N/A,,Overcast,360,2013-03-02 11:35:00
5:55 AM,15.8,11.3,82,30.20,10.0,North,12.7,-,N/A,,Overcast,360,2013-03-02 11:55:00
6:15 AM,15.3,10.9,83,30.20,10.0,North,11.5,-,N/A,,Overcast,360,2013-03-02 12:15:00
6:35 AM,14.7,10.4,83,30.20,10.0,North,10.4,-,N/A,,Overcast,360,2013-03-02 12:35:00
6:55 AM,14.0,10.2,85,30.21,10.0,North,9.2,-,N/A,,Overcast,350,2013-03-02 12:55:00
7:15 AM,14.0,9.5,82,30.22,10.0,North,10.4,-,N/A,,Overcast,350,2013-03-02 13:15:00
7:35 AM,13.6,9.3,83,30.22,10.0,North,5.8,-,N/A,,Overcast,350,2013-03-02 13:35:00
7:55 AM,13.5,8.8,82,30.22,10.0,North,10.4,-,N/A,,Mostly Cloudy,360,2013-03-02 13:55:00
8:15 AM,14.2,9.0,80,30.22,10.0,North,9.2,-,N/A,,Scattered Clouds,350,2013-03-02 14:15:00
8:35 AM,14.9,9.3,79,30.22,10.0,North,9.2,-,N/A,,Clear,360,2013-03-02 14:35:00
8:55 AM,16.0,9.9,77,30.21,10.0,North,11.5,-,N/A,,Clear,350,2013-03-02 14:55:00
9:15 AM,16.7,10.4,76,30.22,10.0,North,12.7,-,N/A,,Clear,350,2013-03-02 15:15:00
9:35 AM,17.6,11.1,76,30.22,10.0,North,12.7,-,N/A,,Clear,350,2013-03-02 15:35:00
9:55 AM,18.7,12.0,75,30.21,10.0,North,11.5,-,N/A,,Clear,360,2013-03-02 15:55:00
10:15 AM,19.4,12.6,75,30.21,10.0,North,12.7,-,N/A,,Clear,350,2013-03-02 16:15:00
10:35 AM,21.0,13.6,73,30.22,10.0,North,8.1,-,N/A,,Clear,350,2013-03-02 16:35:00
10:55 AM,21.7,13.8,72,30.23,10.0,NNW,10.4,-,N/A,,Clear,340,2013-03-02 16:55:00
11:15 AM,22.1,14.0,71,30.22,10.0,North,12.7,-,N/A,,Clear,350,2013-03-02 17:15:00
11:35 AM,22.8,13.8,68,30.22,10.0,North,10.4,-,N/A,,Clear,350,2013-03-02 17:35:00
11:55 AM,23.2,14.4,69,30.21,10.0,North,12.7,-,N/A,,Clear,350,2013-03-02 17:55:00
12:15 PM,23.5,14.4,68,30.21,10.0,NNW,13.8,-,N/A,,Clear,340,2013-03-02 18:15:00
12:35 PM,23.9,14.2,66,30.20,10.0,North,12.7,-,N/A,,Clear,350,2013-03-02 18:35:00
12:55 PM,23.9,13.3,64,30.20,10.0,NNW,11.5,-,N/A,,Clear,340,2013-03-02 18:55:00
1:15 PM,24.6,13.6,63,30.19,10.0,NNW,13.8,-,N/A,,Clear,340,2013-03-02 19:15:00
1:35 PM,24.8,13.6,63,30.19,10.0,NNW,12.7,-,N/A,,Clear,340,2013-03-02 19:35:00
1:55 PM,24.8,13.1,61,30.19,10.0,North,13.8,-,N/A,,Clear,350,2013-03-02 19:55:00
2:15 PM,24.8,13.3,62,30.19,10.0,NNW,13.8,-,N/A,,Clear,340,2013-03-02 20:15:00
2:35 PM,24.8,13.8,63,30.19,10.0,North,12.7,-,N/A,,Clear,350,2013-03-02 20:35:00
2:55 PM,25.2,13.8,62,30.19,10.0,NNW,11.5,-,N/A,,Clear,340,2013-03-02 20:55:00
3:15 PM,24.8,14.4,65,30.19,10.0,NNW,10.4,-,N/A,,Clear,340,2013-03-02 21:15:00
3:35 PM,24.8,14.5,65,30.19,10.0,NNW,10.4,-,N/A,,Clear,330,2013-03-02 21:35:00
3:55 PM,24.4,13.6,64,30.18,10.0,NNW,11.5,-,N/A,,Clear,330,2013-03-02 21:55:00
4:15 PM,23.9,13.5,64,30.18,10.0,NNW,9.2,-,N/A,,Clear,340,2013-03-02 22:15:00
4:35 PM,23.9,14.0,66,30.18,10.0,NW,6.9,-,N/A,,Clear,320,2013-03-02 22:35:00
4:55 PM,23.4,13.6,66,30.19,10.0,NW,8.1,-,N/A,,Clear,320,2013-03-02 22:55:00
5:15 PM,22.5,13.5,68,30.19,10.0,NW,5.8,-,N/A,,Clear,320,2013-03-02 23:15:00
5:35 PM,21.7,12.9,69,30.19,10.0,NW,4.6,-,N/A,,Clear,320,2013-03-02 23:35:00
5:55 PM,20.3,12.2,71,30.20,10.0,NW,4.6,-,N/A,,Clear,320,2013-03-02 23:55:00
6:15 PM,19.4,12.0,73,30.20,10.0,NW,4.6,-,N/A,,Clear,320,2013-03-03 00:15:00
6:35 PM,18.0,11.3,75,30.21,10.0,NNW,3.5,-,N/A,,Clear,330,2013-03-03 00:35:00
6:55 PM,17.6,10.9,75,30.20,10.0,NNW,3.5,-,N/A,,Clear,330,2013-03-03 00:55:00
7:35 PM,13.3,7.9,79,30.20,10.0,WNW,4.6,-,N/A,,Clear,290,2013-03-03 01:35:00
7:55 PM,13.5,7.9,78,30.19,10.0,Calm,Calm,-,N/A,,Clear,0,2013-03-03 01:55:00
8:15 PM,10.8,6.6,83,30.19,10.0,West,3.5,-,N/A,,Clear,280,2013-03-03 02:15:00
8:35 PM,6.3,3.0,87,30.19,10.0,West,4.6,-,N/A,,Clear,280,2013-03-03 02:35:00
8:55 PM,5.9,3.2,89,30.20,10.0,WNW,3.5,-,N/A,,Clear,290,2013-03-03 02:55:00
9:15 PM,6.6,4.1,89,30.20,10.0,Calm,Calm,-,N/A,,Clear,0,2013-03-03 03:15:00
9:35 PM,6.1,3.6,89,30.20,10.0,Calm,Calm,-,N/A,,Clear,0,2013-03-03 03:35:00
9:55 PM,2.7,0.3,90,30.20,10.0,Calm,Calm,-,N/A,,Clear,0,2013-03-03 03:55:00
10:15 PM,1.9,-0.4,90,30.19,10.0,East,3.5,-,N/A,,Clear,100,2013-03-03 04:15:00
10:35 PM,1.2,-1.5,88,30.18,10.0,SE,3.5,-,N/A,,Clear,140,2013-03-03 04:35:00
10:55 PM,1.0,-1.3,90,30.18,10.0,Calm,Calm,-,N/A,,Clear,0,2013-03-03 04:55:00
11:15 PM,0.9,-1.7,89,30.18,10.0,Calm,Calm,-,N/A,,Clear,0,2013-03-03 05:15:00
11:35 PM,4.6,2.7,91,30.18,10.0,Calm,Calm,-,N/A,,Clear,0,2013-03-03 05:35:00
11:55 PM,1.4,-1.5,88,30.17,10.0,Calm,Calm,-,N/A,,Clear,0,2013-03-03 05:55:00